Location: San Martino di Castrozza
(46.2667°N, 11.8000°E)
Time: 03:25:46
(UTC+00:00)

Cosmos 1125 Rocket - Pass Details

Date: 23 April 2021
Orbit: 758 x 779 km, 74.0° (Epoch: 15 May)

Event Time Altitude Azimuth Distance (km) Brightness Sun altitude
Exits shadow 02:33:08 13° 184° (S) 2,138 5.4 -15.8°
Maximum altitude 02:37:50 60° 107° (ESE) 885 4.0 -15.1°
Drops below altitude 10° 02:43:00 10° 28° (NNE) 2,318 7.1 -14.4°
Sets 02:45:24 0° 25° (NNE) 3,245 7.9 -14.1°
